Starlink 32776

operational
NORAD ID: 63032 Int'l Des: 2025-034 Owner: SPXS Country: US Constellation: starlink
LEOCIRCULAR

Über Starlink 32776

Beschreibung wird geladen...

Live-Position

3D-Globus wird geladen...

Nächste Überflüge

Höhenverlauf

Altitude vs Time

uPlot chart will show altitude changes over time

Zweizeiliger Elementsatz

1 63032U 25034D 25353.16719555 .00017639 00000-0 60627-3 0 9995
2 63032 53.1609 272.4876 0001531 65.3728 294.7432 15.30199084 46750
Epoch: 19. Dez. 2025 • Age: 13 hours

Aktueller Status

Höhe 475.6 km
Geschwindigkeit 7.63 km/s
Subsatellitenpunkt 21.02°N, 86.44°E
Startdatum 18. Feb. 2025
Alter 0.8 years
Typ internet

Technische Details

Klassifizierung Payload
Masse 730.00 kg
Trockenmasse 700.00 kg
Gesamtmasse 730.00 kg
Länge 0.30 m
Durchmesser 4.10 m
Spannweite 29.00 m
Form Box + pan
Hersteller SPXS
Bus-Typ Starlink V2M
Phasenstatus In Orbit
Besitzer/Staat SPXS/US

Große Konstellationen

Loading constellations...